When you browse on this site, cookies collect data to enhance your experience and personalize the content and advertising you see.
Visit our Privacy Policy to learn more. By continuing to use the site, you agree to this use of cookies and data.
  • In Hungary
  • List of Countries
  • For 7 days
  • Water Temperature
  • Satellite Maps
  • Weather Map
  • News
  • Weather Widgets
  • user-avatar
    Login

    Hourly Weather Multan

    Today, 19 November, Monday

    Time Temperature Precipitation Wind Pressure Humidity
    00:00 +21°C° 0 mm 3 mps 749 mmHg 27%
    01:00 +21°C° 0 mm 3 mps 750 mmHg 27%
    02:00 +21°C° 0 mm 3 mps 750 mmHg 27%
    03:00 +20°C° 0 mm 3 mps 750 mmHg 27%
    04:00 +20°C° 0 mm 3 mps 750 mmHg 28%
    05:00 +20°C° 0 mm 3 mps 750 mmHg 27%
    06:00 +20°C° 0 mm 3 mps 750 mmHg 26%
    07:00 +21°C° 0 mm 3 mps 751 mmHg 25%
    08:00 +21°C° 0 mm 3 mps 751 mmHg 24%
    09:00 +25°C° 0 mm 4 mps 751 mmHg 21%
    10:00 +28°C° 0 mm 4 mps 752 mmHg 18%
    11:00 +30°C° 0 mm 4 mps 752 mmHg 17%
    12:00 +32°C° 0 mm 4 mps 752 mmHg 16%
    13:00 +33°C° 0 mm 4 mps 751 mmHg 16%
    14:00 +34°C° 0 mm 4 mps 751 mmHg 15%
    15:00 +33°C° 0 mm 3 mps 751 mmHg 16%
    16:00 +30°C° 0 mm 3 mps 751 mmHg 17%
    17:00 +28°C° 0 mm 3 mps 751 mmHg 18%
    18:00 +27°C° 0 mm 3 mps 751 mmHg 19%
    19:00 +26°C° 0 mm 3 mps 752 mmHg 19%
    20:00 +25°C° 0 mm 3 mps 752 mmHg 20%
    21:00 +24°C° 0 mm 3 mps 752 mmHg 21%
    22:00 +24°C° 0 mm 3 mps 752 mmHg 22%
    23:00 +22°C° 0 mm 3 mps 752 mmHg 23%

    Tomorrow, 20 November, Tuesday

    Time Temperature Precipitation Wind Pressure Humidity
    00:00 +22°C° 0 mm 3 mps 752 mmHg 24%
    01:00 +21°C° 0 mm 3 mps 752 mmHg 25%
    02:00 +21°C° 0 mm 3 mps 752 mmHg 27%
    03:00 +20°C° 0 mm 3 mps 752 mmHg 27%
    04:00 +20°C° 0 mm 3 mps 752 mmHg 28%
    05:00 +20°C° 0 mm 3 mps 753 mmHg 29%
    06:00 +20°C° 0 mm 3 mps 753 mmHg 28%
    07:00 +20°C° 0 mm 2 mps 753 mmHg 27%
    08:00 +21°C° 0 mm 2 mps 754 mmHg 26%
    09:00 +25°C° 0 mm 3 mps 754 mmHg 22%
    10:00 +27°C° 0 mm 3 mps 754 mmHg 19%
    11:00 +30°C° 0 mm 3 mps 754 mmHg 15%
    12:00 +31°C° 0 mm 3 mps 753 mmHg 15%
    13:00 +31°C° 0 mm 3 mps 753 mmHg 14%
    14:00 +33°C° 0 mm 3 mps 752 mmHg 13%
    15:00 +31°C° 0 mm 3 mps 752 mmHg 14%
    16:00 +29°C° 0 mm 2 mps 752 mmHg 15%
    17:00 +28°C° 0 mm 2 mps 752 mmHg 16%
    18:00 +26°C° 0 mm 2 mps 752 mmHg 18%
    19:00 +25°C° 0 mm 2 mps 753 mmHg 20%
    20:00 +23°C° 0 mm 2 mps 753 mmHg 21%
    21:00 +23°C° 0 mm 1 mps 753 mmHg 22%
    22:00 +22°C° 0 mm 1 mps 753 mmHg 23%
    23:00 +22°C° 0 mm 1 mps 753 mmHg 24%

    Day after tomorrow, 21 November, Wednesday

    Time Temperature Precipitation Wind Pressure Humidity
    00:00 +21°C° 0 mm 1 mps 753 mmHg 25%
    01:00 +21°C° 0 mm 1 mps 753 mmHg 26%
    02:00 +18°C° 0 mm 0 mps 752 mmHg 27%
    03:00 +18°C° 0 mm 0 mps 752 mmHg 28%
    04:00 +17°C° 0 mm 0 mps 752 mmHg 28%
    05:00 +17°C° 0 mm 0 mps 752 mmHg 29%
    06:00 +20°C° 0 mm 1 mps 752 mmHg 28%
    07:00 +21°C° 0 mm 1 mps 753 mmHg 27%
    08:00 +22°C° 0 mm 1 mps 753 mmHg 25%
    09:00 +24°C° 0 mm 1 mps 753 mmHg 22%
    10:00 +27°C° 0 mm 1 mps 753 mmHg 19%
    11:00 +29°C° 0 mm 1 mps 753 mmHg 16%
    12:00 +30°C° 0 mm 1 mps 753 mmHg 15%
    13:00 +31°C° 0 mm 1 mps 752 mmHg 14%
    14:00 +29°C° 0 mm 0 mps 751 mmHg 13%
    15:00 +28°C° 0 mm 0 mps 751 mmHg 15%
    16:00 +26°C° 0 mm 0 mps 751 mmHg 16%
    17:00 +25°C° 0 mm 0 mps 750 mmHg 18%
    18:00 +23°C° 0 mm 0 mps 751 mmHg 19%
    19:00 +24°C° 0 mm 1 mps 751 mmHg 20%
    20:00 +23°C° 0 mm 1 mps 752 mmHg 21%
    21:00 +22°C° 0 mm 1 mps 752 mmHg 22%
    22:00 +22°C° 0 mm 1 mps 752 mmHg 23%
    23:00 +22°C° 0 mm 1 mps 752 mmHg 24%

    22 November, Thursday

    Time Temperature Precipitation Wind Pressure Humidity
    00:00 +21°C° 0 mm 1 mps 752 mmHg 24%
    01:00 +21°C° 0 mm 1 mps 751 mmHg 25%
    02:00 +21°C° 0 mm 1 mps 751 mmHg 25%
    03:00 +20°C° 0 mm 1 mps 751 mmHg 26%
    04:00 +20°C° 0 mm 1 mps 751 mmHg 26%
    05:00 +19°C° 0 mm 1 mps 751 mmHg 27%
    06:00 +20°C° 0 mm 1 mps 752 mmHg 26%
    07:00 +21°C° 0 mm 1 mps 752 mmHg 25%
    08:00 +22°C° 0 mm 1 mps 753 mmHg 24%
    09:00 +24°C° 0 mm 1 mps 753 mmHg 21%
    10:00 +27°C° 0 mm 1 mps 753 mmHg 18%
    11:00 +29°C° 0 mm 1 mps 753 mmHg 15%
    12:00 +30°C° 0 mm 1 mps 753 mmHg 14%
    13:00 +30°C° 0 mm 1 mps 752 mmHg 14%
    14:00 +31°C° 0 mm 2 mps 751 mmHg 13%
    15:00 +30°C° 0 mm 2 mps 751 mmHg 14%
    16:00 +29°C° 0 mm 3 mps 751 mmHg 15%
    17:00 +28°C° 0 mm 3 mps 752 mmHg 17%
    18:00 +26°C° 0 mm 3 mps 752 mmHg 19%
    19:00 +23°C° 0 mm 4 mps 753 mmHg 22%
    20:00 +22°C° 0 mm 4 mps 754 mmHg 25%
    21:00 +21°C° 0 mm 4 mps 754 mmHg 27%
    22:00 +20°C° 0 mm 3 mps 755 mmHg 28%
    23:00 +19°C° 0 mm 3 mps 755 mmHg 30%

    23 November, Friday

    Time Temperature Precipitation Wind Pressure Humidity
    00:00 +19°C° 0 mm 3 mps 755 mmHg 31%
    01:00 +18°C° 0 mm 3 mps 755 mmHg 31%
    02:00 +18°C° 0 mm 3 mps 755 mmHg 32%
    03:00 +17°C° 0 mm 3 mps 755 mmHg 34%
    04:00 +17°C° 0 mm 3 mps 755 mmHg 36%
    05:00 +16°C° 0 mm 3 mps 755 mmHg 37%
    06:00 +17°C° 0 mm 3 mps 756 mmHg 37%
    07:00 +17°C° 0 mm 3 mps 756 mmHg 37%
    08:00 +18°C° 0 mm 2 mps 757 mmHg 37%
    09:00 +21°C° 0 mm 3 mps 757 mmHg 31%
    10:00 +24°C° 0 mm 3 mps 757 mmHg 26%
    11:00 +27°C° 0 mm 3 mps 757 mmHg 21%
    12:00 +28°C° 0 mm 3 mps 756 mmHg 19%
    13:00 +29°C° 0 mm 2 mps 755 mmHg 18%
    14:00 +30°C° 0 mm 2 mps 754 mmHg 16%
    15:00 +29°C° 0 mm 2 mps 754 mmHg 18%
    16:00 +27°C° 0 mm 1 mps 754 mmHg 20%
    17:00 +26°C° 0 mm 1 mps 753 mmHg 21%
    18:00 +25°C° 0 mm 1 mps 754 mmHg 23%
    19:00 +23°C° 0 mm 1 mps 754 mmHg 25%
    20:00 +22°C° 0 mm 1 mps 754 mmHg 26%
    21:00 +20°C° 0 mm 0 mps 754 mmHg 27%
    22:00 +19°C° 0 mm 0 mps 754 mmHg 28%
    23:00 +19°C° 0 mm 0 mps 754 mmHg 29%

    24 November, Saturday

    Time Temperature Precipitation Wind Pressure Humidity
    00:00 +18°C° 0 mm 0 mps 754 mmHg 30%
    01:00 +18°C° 0 mm 0 mps 754 mmHg 30%
    02:00 +20°C° 0 mm 1 mps 753 mmHg 30%
    03:00 +17°C° 0 mm 0 mps 753 mmHg 31%
    04:00 +17°C° 0 mm 0 mps 753 mmHg 32%
    05:00 +17°C° 0 mm 0 mps 753 mmHg 32%
    06:00 +17°C° 0 mm 0 mps 753 mmHg 31%
    07:00 +18°C° 0 mm 0 mps 754 mmHg 29%
    08:00 +19°C° 0 mm 0 mps 754 mmHg 28%
    09:00 +24°C° 0 mm 1 mps 754 mmHg 24%
    10:00 +26°C° 0 mm 1 mps 754 mmHg 20%
    11:00 +29°C° 0 mm 2 mps 754 mmHg 17%
    12:00 +30°C° 0 mm 2 mps 753 mmHg 16%
    13:00 +31°C° 0 mm 1 mps 752 mmHg 14%
    14:00 +32°C° 0 mm 1 mps 751 mmHg 13%
    15:00 +31°C° 0 mm 1 mps 751 mmHg 15%
    16:00 +29°C° 0 mm 1 mps 751 mmHg 16%
    17:00 +26°C° 0 mm 0 mps 750 mmHg 18%
    18:00 +27°C° 0 mm 1 mps 751 mmHg 19%
    19:00 +25°C° 0 mm 1 mps 751 mmHg 20%
    20:00 +24°C° 0 mm 1 mps 751 mmHg 21%
    21:00 +24°C° 0 mm 1 mps 751 mmHg 22%
    22:00 +24°C° 0 mm 2 mps 751 mmHg 22%
    23:00 +23°C° 0 mm 2 mps 751 mmHg 23%
    Show more